This demonstration page uses our WeatherBlox Daily Observations layout. Learn more.

Left ArrowRight Arrow

Hourly Observations for October 15, 2021

Temp ( °F °C ) Dew Point ( °F °C ) Humidity (%) Winds ( mph kmh ) Pressure ( in mb ) Visibility ( mi km ) Precip ( " mm )
12:15 am 00:15 Partly Cloudy 41 5 39 4 93 93 W 3 6 30.11 1020 10 16 N/A
12:35 am 00:35 Clear 41 4.8 39 4 95 95 W 5 7 30.11 1020 10 16 N/A
12:55 am 00:55 Partly Cloudy 40 4.5 38 3.6 94 94 W 3 6 30.10 1019 10 16 N/A
1:15 am 01:15 Partly Cloudy 39 4.1 38 3.2 94 94 W 3 6 30.10 1019 10 16 N/A
1:35 am 01:35 Clear 39 3.9 38 3.1 95 95 W 5 7 30.10 1019 10 16 N/A
1:55 am 01:55 Clear 38 3.6 37 2.8 95 95 W 6 9 30.10 1019 10 16 N/A
2:15 am 02:15 Clear 39 3.8 38 3.2 96 96 W 5 7 30.10 1019 10 16 N/A
2:35 am 02:35 Clear 38 3.5 37 2.6 94 94 WNW 3 6 30.11 1020 10 16 N/A
2:55 am 02:55 Clear 37 3 36 2 93 93 WNW 5 7 30.12 1020 10 16 N/A
3:15 am 03:15 Clear 36 2.4 35 1.4 93 93 NW 6 9 30.12 1020 10 16 N/A
3:35 am 03:35 Clear 36 2.2 34 1.3 94 94 NW 5 7 30.12 1020 10 16 N/A
3:55 am 03:55 Clear 37 2.6 35 1.6 93 93 NW 5 7 30.12 1020 10 16 N/A
4:15 am 04:15 Clear 38 3.5 36 2.2 91 91 NNW 5 7 30.12 1020 10 16 N/A
4:35 am 04:35 Clear 38 3.3 36 2 91 91 NW 3 6 30.12 1020 10 16 N/A
4:55 am 04:55 Clear 37 3 35 1.7 91 91 NW 3 6 30.13 1020 10 16 N/A
5:15 am 05:15 Clear 37 2.7 35 1.7 93 93 NW 3 6 30.14 1021 10 16 N/A
5:35 am 05:35 Clear 37 2.5 35 1.5 93 93 NW 3 6 30.14 1021 10 16 N/A
5:55 am 05:55 Clear 37 2.5 34 1.3 92 92 NW 5 7 30.15 1021 10 16 N/A
6:15 am 06:15 Clear 36 2.4 34 1.1 91 91 NW 3 6 30.16 1021 10 16 N/A
6:35 am 06:35 Clear 36 2 34 1 93 93 NW 6 9 30.18 1022 10 16 N/A
6:55 am 06:55 Clear 35 1.8 33 0.7 93 93 NW 5 7 30.20 1023 10 16 N/A
7:15 am 07:15 Clear 36 2 34 0.9 93 93 NW 5 7 30.20 1023 10 16 N/A
7:35 am 07:35 Clear 35 1.5 33 0.4 92 92 NW 5 7 30.21 1023 10 16 N/A
7:55 am 07:55 Sunny 35 1.4 33 0.3 92 92 NW 5 7 30.22 1023 10 16 N/A
8:15 am 08:15 Partly Cloudy 34 1.2 33 0.3 94 94 NW 5 7 30.23 1024 10 16 N/A
8:35 am 08:35 Mostly Cloudy 36 2 33 0.8 92 92 NW 6 9 30.24 1024 10 16 N/A
8:55 am 08:55 Mostly Cloudy 37 3 34 1 87 87 NW 7 11 30.25 1024 10 16 N/A
9:15 am 09:15 Sunny 38 3.6 35 1.6 87 87 WNW 5 7 30.25 1024 10 16 N/A
9:35 am 09:35 Partly Cloudy 41 5.1 35 1.9 80 80 WNW 6 9 30.25 1024 10 16 N/A
9:55 am 09:55 Partly Cloudy 43 6.1 37 2.6 79 79 WNW 6 9 30.25 1024 10 16 N/A
10:15 am 10:15 Sunny 46 7.5 36 2.4 70 70 WNW 8 13 30.25 1024 10 16 N/A
10:35 am 10:35 Sunny 48 8.8 37 2.5 65 65 WNW 9 15 30.23 1024 10 16 N/A
10:55 am 10:55 Sunny 49 9.4 35 1.7 59 59 NW 9 15 30.23 1024 10 16 N/A
11:15 am 11:15 Sunny 50 10 34 1 54 54 NW 9 15 30.23 1024 10 16 N/A
11:35 am 11:35 Sunny 51 10.7 33 0.6 50 50 NNW 13 20 30.22 1023 10 16 N/A
11:55 am 11:55 Sunny 52 10.9 33 0.4 49 49 NW 17 28 30.21 1023 10 16 N/A
12:15 pm 12:15 Sunny 53 11.5 32 undefined 45 45 NW 12 19 30.21 1023 10 16 N/A
12:35 pm 12:35 Sunny 54 12.1 32 undefined 44 44 NW 15 24 30.19 1022 10 16 N/A
12:55 pm 12:55 Sunny 55 12.6 27 -2.6 35 35 WNW 15 24 30.18 1022 10 16 N/A
1:15 pm 13:15 Sunny 55 12.7 29 -1.6 37 37 WNW 16 26 30.18 1022 10 16 N/A
1:35 pm 13:35 Sunny 56 13.2 31 -0.7 39 39 WNW 13 20 30.17 1022 10 16 N/A
1:55 pm 13:55 Sunny 56 13.5 31 -0.8 38 38 WNW 14 22 30.16 1021 10 16 N/A
2:15 pm 14:15 Sunny 57 14 29 -1.9 34 34 NW 15 24 30.15 1021 10 16 N/A
2:35 pm 14:35 Partly Cloudy 58 14.3 26 -3.4 29 29 NW 15 24 30.14 1020 10 16 N/A
2:55 pm 14:55 Partly Cloudy 58 14.2 27 -3 31 31 WNW 21 33 30.14 1021 10 16 N/A
3:15 pm 15:15 Mostly Cloudy 57 13.9 26 -3.4 30 30 NW 17 28 30.14 1021 10 16 N/A
3:35 pm 15:35 Mostly Cloudy 56 13.4 25 -3.8 30 30 NW 12 19 30.14 1021 10 16 N/A
3:55 pm 15:55 Mostly Cloudy 57 14.1 25 -3.9 29 29 WNW 18 30 30.14 1021 10 16 N/A
4:15 pm 16:15 Cloudy 57 14 24 -4.2 28 28 NW 18 30 30.14 1021 10 16 N/A
4:35 pm 16:35 Cloudy 57 13.7 22 -5.6 26 26 NW 22 35 30.15 1021 10 16 N/A
4:55 pm 16:55 Mostly Cloudy 55 12.9 23 -5 29 29 WNW 17 28 30.17 1022 10 16 N/A
5:15 pm 17:15 Partly Cloudy 56 13.3 24 -4.3 29 29 WNW 15 24 30.15 1021 10 16 N/A
5:35 pm 17:35 Sunny 56 13.5 24 -4.7 28 28 WNW 20 31 30.16 1021 10 16 N/A
5:55 pm 17:55 Sunny 55 13 25 -4.1 30 30 NW 15 24 30.17 1022 10 16 N/A
6:15 pm 18:15 Sunny 55 12.5 24 -4.5 31 31 WNW 12 19 30.18 1022 10 16 N/A
6:35 pm 18:35 Sunny 53 11.8 25 -4.1 33 33 WNW 9 15 30.19 1022 10 16 N/A
6:55 pm 18:55 Sunny 52 10.9 25 -3.7 36 36 WNW 8 13 30.19 1023 10 16 N/A
7:15 pm 19:15 Clear 50 9.9 26 -3.3 40 40 W 6 9 30.20 1023 10 16 N/A
7:35 pm 19:35 Clear 47 8.5 27 -2.7 46 46 W 7 11 30.22 1023 10 16 N/A
7:55 pm 19:55 Clear 45 7.3 28 -2.5 50 50 W 6 9 30.24 1024 10 16 N/A
8:15 pm 20:15 Clear 45 7 27 -2.7 50 50 W 7 11 30.25 1024 10 16 N/A
8:35 pm 20:35 Clear 44 6.9 27 -2.6 51 51 W 7 11 30.25 1024 10 16 N/A
8:55 pm 20:55 Clear 43 6 28 -2.2 56 56 W 6 9 30.26 1025 10 16 N/A
9:15 pm 21:15 Clear 42 5.6 28 -2.5 56 56 W 7 11 30.27 1025 10 16 N/A
9:35 pm 21:35 Clear 41 5.1 28 -2.2 60 60 W 7 11 30.28 1025 10 16 N/A
9:55 pm 21:55 Clear 41 5 28 -2.1 60 60 W 8 13 30.28 1025 10 16 N/A
10:15 pm 22:15 Clear 42 5.4 28 -2.4 58 58 W 7 11 30.28 1026 10 16 N/A
10:35 pm 22:35 Clear 41 5.2 27 -2.7 57 57 W 6 9 30.29 1026 10 16 N/A
10:55 pm 22:55 Clear 41 5.1 27 -2.9 57 57 W 6 9 30.29 1026 10 16 N/A
11:15 pm 23:15 Clear 41 4.9 27 -2.6 59 59 W 7 11 30.29 1026 10 16 N/A
11:35 pm 23:35 Clear 39 3.7 27 -2.6 64 64 W 7 11 30.30 1026 10 16 N/A
11:55 pm 23:55 Clear 39 4 28 -2.5 63 63 W 7 11 30.31 1026 10 16 N/A

Powered by AerisWeather